COSMOS 2251 DEB, 40797

Orbit data source: Space-Track

COSMOS 2251 DEB, 40797 is space debris in LEO originally from a launch on Wed, 16 Jun 1993 UTC launched from the Plesetsk Missile And Space Complex (PKMTR). The debris from Iridium 33, an American commercial communications satellite, has been tracked extensively since its accidental collision with the defunct Russian satellite Cosmos 2251 in 2009. This event, occurring at high speed in low Earth orbit (LEO), generated thousands of pieces of space debris, significantly increasing the risk of further collisions. The Iridium 33 debris cloud has impacted space traffic management and orbital debris mitigation strategies, making it a subject of ongoing study in space situational awareness.

Loading next visibility...
Identifier
40797, 1993-036BWA
Orbit
LEO
Country
Flag of CISCIS
Related business
Manufacturer
Unknown
Mission
Spacecraft
Bus & Motor
Unknown
Mass
Unknown
Launch date (UTC)
1993-06-16 (33 years ago)
Launch vehicle
Unknown
Launch site
Plesetsk Missile And Space Complex (PKMTR)
Object type
Payload
Rocket body
Debris
Shape & HBR
Unknown shape, 0.1 m
Radar Cross Section
Small (<0.1 m²)

Expand to show TLE details & history
Last TLE update: 4 weeks ago

TLE from 4 weeks ago
0 COSMOS 2251 DEB
1 40797U 93036BWA 25323.78005327  .00012707  00000-0  72810-3 0  9993
2 40797  73.9200 143.0892 0070395  60.6639 300.1560 15.10509474642970
Epoch: 2025-11-19T18:43Z
TLE epoch observation values (Epoch: 2025-11-19T18:43:16.602Z)
Latitude
-0.00004°
Longitude
163.22313°
Altitude
513.146 km
Speed
7.621 km/s
True Right ascension
09h 32m 21s
True Declination
0° 00' 00"
Sunlit
Object was in daylight at epoch
Visualization orbit readout
Latitude
Unknown
Longitude
Unknown
Altitude
Unknown
Speed
Unknown
Apparent Right ascension
Unknown
Apparent Declination
Unknown
Sunlit
N/A
Visualization observer readout
Local Sidereal Time
02:27:13
Azimuth
Unknown
Elevation
Unknown
Doppler factor
Unknown
Orbital elements
Apogee altitude
580.843 km
Perigee altitude
483.552 km
Semi-major axis
6,910.335 km
Eccentricity
0.00704
Inclination
73.92°
RAAN
143.0892°
Arg. of periapsis
60.6639°
True anomaly
299.45543°
Mean anomaly
300.156°
Eccentric anomaly
299.80602°
Mean motion
3.77828 °/min
Orbital period
95.28 mins
BSTAR
0.0007281

Documentation

Showing up to 5 results
|